Location: Roc des P�zouls
(43.9667°N, 3.5500°E)
Time: 09:49:58
(UTC+00:00)

CZ-2C R/B - Pass Details

Date: 14 November 2019
Orbit: 667 x 785 km, 98.1° (Epoch: 08 December)

Event Time Altitude Azimuth Distance (km) Brightness Sun altitude
Rises 05:31:05 0° 359° (N) 3,198 5.6 -12.3°
Reaches altitude 10° 05:33:59 10° 342° (NNW) 2,247 4.6 -11.8°
Maximum altitude 05:37:23 19° 299° (WNW) 1,684 3.7 -11.2°
Drops below altitude 10° 05:40:42 10° 254° (WSW) 2,184 4.3 -10.7°
Enters shadow 05:41:14 - 250° (WSW) 2,337 4.5 -10.6°
